Weather History for Antalya, Turkey

Change the Weather History Date:

Friday, January 27, 2012

  Actual Average Record
Temperature  
Mean Temperature 49 °F -  
Max Temperature 57 °F 59 °F 66 °F (2002)
Min Temperature 41 °F 43 °F 32 °F (2000)
Degree Days  
Heating Degree Days 16    
Moisture  
Dew Point 32 °F    
Average Humidity 54    
Maximum Humidity 87    
Minimum Humidity 24    
Precipitation  
Precipitation 0.00 in 0.26 in - ()
Sea Level Pressure  
Sea Level Pressure 29.86 in    
Wind  
Wind Speed 12 mph ()    
Max Wind Speed 22 mph    
Max Gust Speed -    
Visibility 6.2 miles    
Events      
Averages and records for this station are not official NWS values.
T = Trace of Precipitation, MM = Missing Value Source: Averaged Metar Reports

Daily Weather History Graph

Daily Weather History Graph

Search for Another Location

Airport:

Trip Planner

Search our weather history database for the weather conditions in past years. The results will help you decide how hot, cold, wet, or windy it might be!

Date:

Astronomy

Jan. 27, 2012 Rise Set
Actual Time 7:03 AM EET 5:15 PM EET
Civil Twilight 6:35 AM EET 5:43 PM EET
Nautical Twilight 6:04 AM EET 6:14 PM EET
Astronomical Twilight 5:33 AM EET 6:45 PM EET
Moon 8:56 AM EET 9:38 PM EET
Length of Visible Light 11h 07m
Length of Day
10h 12m
Waxing Crescent, 17% of the Moon is Illuminated
Jan 27
Waxing Crescent
Jan 31
First Quarter
Feb 7
Full
Feb 14
Last Quarter
Feb 22
New

Hourly Weather History & Observations

Time (EET) Temp. Windchill Dew Point Humidity Pressure Visibility Wind Dir Wind Speed Gust Speed Precip Events Conditions
12:20 AM 44.6 °F 39.2 °F 39.2 °F 81% 29.71 in 6.2 mi North 10.4 mph - N/A   Scattered Clouds
12:50 AM 42.8 °F 38.6 °F 39.2 °F 87% 29.71 in 6.2 mi North 6.9 mph - N/A   Scattered Clouds
1:20 AM 42.8 °F 39.3 °F 37.4 °F 81% 29.71 in 6.2 mi NW 5.8 mph - N/A   Scattered Clouds
1:50 AM 42.8 °F 37.5 °F 37.4 °F 81% 29.71 in 6.2 mi NNW 9.2 mph - N/A   Scattered Clouds
2:00 AM 43 °F - 38 °F 77% 29.72 in 6 mi NNW 9.2 mph - -   Partly Cloudy
2:20 AM 44.6 °F 39.2 °F 35.6 °F 71% 29.74 in 6.2 mi NW 10.4 mph - N/A   Scattered Clouds
2:50 AM 44.6 °F 41.4 °F 35.6 °F 71% 29.74 in 6.2 mi NNW 5.8 mph - N/A   Scattered Clouds
3:20 AM 46.4 °F 41.1 °F 33.8 °F 62% 29.74 in 6.2 mi NNW 11.5 mph - N/A   Scattered Clouds
3:50 AM 44.6 °F 39.2 °F 33.8 °F 66% 29.74 in 6.2 mi NNW 10.4 mph - N/A   Scattered Clouds
4:20 AM 46.4 °F 40.7 °F 32.0 °F 57% 29.71 in 6.2 mi NW 12.7 mph - N/A   Scattered Clouds
4:50 AM 46.4 °F 41.5 °F 33.8 °F 62% 29.71 in 6.2 mi NW 10.4 mph - N/A   Scattered Clouds
5:20 AM 46.4 °F 41.5 °F 33.8 °F 62% 29.74 in 6.2 mi NW 10.4 mph - N/A   Scattered Clouds
5:50 AM 44.6 °F 39.2 °F 33.8 °F 66% 29.74 in 6.2 mi NW 10.4 mph - N/A   Scattered Clouds
6:20 AM 44.6 °F 39.2 °F 32.0 °F 61% 29.77 in 6.2 mi NW 10.4 mph - N/A   Scattered Clouds
6:50 AM 44.6 °F 40.2 °F 32.0 °F 61% 29.77 in 6.2 mi WNW 8.1 mph - N/A   Scattered Clouds
7:20 AM 44.6 °F 39.7 °F 32.0 °F 61% 29.80 in 6.2 mi WNW 9.2 mph - N/A   Scattered Clouds
7:50 AM 46.4 °F 41.9 °F 33.8 °F 62% 29.80 in 6.2 mi NW 9.2 mph - N/A   Scattered Clouds
8:00 AM 46 °F - 33 °F 48% 29.79 in 6 mi NW 9.2 mph - -   Partly Cloudy
8:20 AM 46.4 °F 41.9 °F 33.8 °F 62% 29.80 in 6.2 mi WNW 9.2 mph - N/A   Scattered Clouds
8:50 AM 50.0 °F - 35.6 °F 58% 29.83 in 6.2 mi NW 11.5 mph - N/A   Scattered Clouds
9:20 AM 51.8 °F - 35.6 °F 54% 29.83 in 6.2 mi NNW 15.0 mph - N/A   Scattered Clouds
9:50 AM 53.6 °F - 35.6 °F 51% 29.83 in 6.2 mi NNW 13.8 mph - N/A   Partly Cloudy
10:20 AM 53.6 °F - 33.8 °F 47% 29.86 in 6.2 mi North 18.4 mph - N/A   Partly Cloudy
10:50 AM 55.4 °F - 32.0 °F 41% 29.86 in 6.2 mi NW 18.4 mph - N/A   Partly Cloudy
11:50 AM 57.2 °F - 32.0 °F 38% 29.83 in 6.2 mi NW 20.7 mph - N/A   Partly Cloudy
12:20 PM 57.2 °F - 32.0 °F 38% 29.83 in 6.2 mi NW 15.0 mph - N/A   Scattered Clouds
12:50 PM 57.2 °F - 30.2 °F 36% 29.83 in 6.2 mi WNW 19.6 mph - N/A   Scattered Clouds
1:20 PM 57.2 °F - 30.2 °F 36% 29.86 in 6.2 mi NW 19.6 mph - N/A   Scattered Clouds
1:50 PM 57.2 °F - 32.0 °F 38% 29.86 in 6.2 mi NW 20.7 mph - N/A   Scattered Clouds
2:00 PM 56 °F - 30 °F 24% 29.86 in 6 mi NW 20.7 mph - -   Partly Cloudy
2:20 PM 55.4 °F - 32.0 °F 41% 29.89 in 6.2 mi NW 21.9 mph - N/A   Scattered Clouds
2:50 PM 55.4 °F - 30.2 °F 38% 29.89 in 6.2 mi NW 19.6 mph - N/A   Scattered Clouds
3:20 PM 53.6 °F - 30.2 °F 41% 29.89 in 6.2 mi NW 20.7 mph - N/A   Partly Cloudy
3:50 PM 53.6 °F - 30.2 °F 41% 29.89 in 6.2 mi NNW 20.7 mph - N/A   Partly Cloudy
4:20 PM 53.6 °F - 30.2 °F 41% 29.92 in 6.2 mi NW 20.7 mph - N/A   Partly Cloudy
4:50 PM 51.8 °F - 30.2 °F 44% 29.95 in 6.2 mi NNW 16.1 mph - N/A   Partly Cloudy
5:20 PM 50.0 °F - 30.2 °F 47% 29.95 in 6.2 mi NNW 19.6 mph - N/A   Partly Cloudy
5:50 PM 48.2 °F - 30.2 °F 50% 29.95 in 6.2 mi NNW 16.1 mph - N/A   Partly Cloudy
6:20 PM 48.2 °F - 28.4 °F 46% 29.98 in 6.2 mi NNW 20.7 mph - N/A   Partly Cloudy
6:50 PM 44.6 °F 36.4 °F 30.2 °F 57% 29.98 in 6.2 mi North 20.7 mph - N/A   Partly Cloudy
7:20 PM 44.6 °F 36.1 °F 28.4 °F 53% 29.98 in 6.2 mi North 21.9 mph - N/A   Partly Cloudy
7:50 PM 44.6 °F 37.2 °F 28.4 °F 53% 30.01 in - North 17.3 mph - N/A   Clear
8:00 PM 44 °F - 29 °F 43% 30.00 in 6 mi North 17.3 mph - -  
8:20 PM 44.6 °F 37.2 °F 28.4 °F 53% 30.01 in - North 17.3 mph - N/A   Clear
8:50 PM 44.6 °F 37.4 °F 26.6 °F 49% 30.01 in - NNW 16.1 mph - N/A   Clear
9:20 PM 42.8 °F 38.6 °F 28.4 °F 57% 30.04 in - NNE 6.9 mph - N/A   Clear
9:50 PM 44.6 °F 37.8 °F 28.4 °F 53% 30.04 in - NW 15.0 mph - N/A   Clear
10:20 PM 44.6 °F 38.8 °F 30.2 °F 57% 30.04 in - NW 11.5 mph - N/A   Clear
10:50 PM 42.8 °F 36.6 °F 28.4 °F 57% 30.04 in - NW 11.5 mph - N/A   Clear
11:20 PM 42.8 °F 35.1 °F 26.6 °F 53% 30.04 in - NNW 16.1 mph - N/A   Clear
11:50 PM 41.0 °F 33.5 °F 24.8 °F 53% 30.04 in - NNW 13.8 mph - N/A   Clear